Home   Weather   St Helens   Past weeks

Flag for United Kingdom Past Weather in St Helens, England, United Kingdom — Yesterday and Last 2 Weeks

Now
54 °F

Scattered showers. Broken clouds.


Feels Like: 52 °F
Forecast: 45 / 52 °F
Wind: 6 mph from West

Location: Liverpool Airport

Current Time: Feb 19, 2017 at 2:22:17 pm

Latest Report: Feb 19, 2017 at 1:50 pm


Visibility: N/A

Pressure: 30.12 "Hg

Humidity: 77%

Dew Point: 46 °F

Location of St HelensLocation

Past Weather in St Helens — Graph

°F

St Helens Temperature Yesterday

Maximum temperature yesterday: 54 °F (at 2:50 pm)
Minimum temperature yesterday: 45 °F (at 3:50 am)
Average temperature yesterday: 48 °F

High & Low Weather Summary for the Past Weeks

 TemperatureHumidityPressure
High54 °F (Feb 17, 2:20 pm)100% (Feb 5, 8:50 am)30.45 "Hg (Feb 5, 8:50 am)
Low30 °F (Feb 6, 6:20 am)62% (Feb 13, 12:20 pm)29.39 "Hg (Feb 4, 12:20 pm)
Average42 °F84%30.15 "Hg
* Reported Feb 4 12:20 pm — Feb 19 12:50 pm, St Helens, Weather by CustomWeather, © 2017

Note: Actual official high and low records may vary slightly from our data, if they occured in-between our weather recording intervals... More about our weather records

Advertising

St Helens Weather History for the Previous 24 Hours

Scroll right to see more
 ConditionsComfort  
Time TempWeatherWind HumidityBarometerVisibility
12:50 pm
Sun, Feb 19
54 °FBroken clouds.6 mph77%30.12 "HgN/A
12:20 pm50 °FPartly sunny.5 mph88%30.15 "Hg6 mi
11:50 am50 °FScattered showers. Broken clouds.7 mph88%30.15 "Hg6 mi
11:20 am50 °FScattered showers. Broken clouds.6 mph88%30.15 "Hg6 mi
10:50 am50 °FScattered showers. Broken clouds.5 mph88%30.15 "Hg4 mi
10:20 am50 °FScattered showers. Broken clouds.5 mph82%30.15 "Hg5 mi
9:50 am50 °FPartly sunny.3 mph76%30.15 "HgN/A
9:20 am48 °FScattered clouds.3 mph82%30.15 "HgN/A
8:50 am48 °FPassing clouds.1 mph82%30.15 "HgN/A
8:20 am46 °FPassing clouds.3 mph87%30.15 "HgN/A
7:50 am46 °FPassing clouds.5 mph87%30.12 "HgN/A
7:20 am46 °FPassing clouds.3 mph87%30.12 "HgN/A
6:50 am48 °FPassing clouds.6 mph87%30.12 "HgN/A
6:20 am48 °FPassing clouds.7 mph82%30.12 "HgN/A
5:50 am48 °FPassing clouds.10 mph87%30.12 "HgN/A
5:20 am48 °FPassing clouds.10 mph87%30.12 "HgN/A
4:50 am48 °FPassing clouds.13 mph87%30.09 "HgN/A
4:20 am48 °FPassing clouds.9 mph87%30.09 "HgN/A
3:50 am48 °FPassing clouds.13 mph87%30.09 "HgN/A
3:20 am48 °FPassing clouds.12 mph82%30.09 "HgN/A
2:50 am48 °FPassing clouds.13 mph87%30.09 "HgN/A
1:50 am48 °FPassing clouds.8 mph94%30.12 "HgN/A
1:20 am48 °FPassing clouds.7 mph87%30.12 "HgN/A
12:50 am48 °FPassing clouds.9 mph94%30.12 "HgN/A
12:20 am48 °FPassing clouds.7 mph94%30.12 "HgN/A
11:50 pm
Sat, Feb 18
48 °FPassing clouds.9 mph87%30.12 "HgN/A
11:20 pm48 °FPassing clouds.10 mph87%30.12 "HgN/A
10:50 pm50 °FPassing clouds.9 mph88%30.09 "HgN/A
10:20 pm50 °FPassing clouds.6 mph82%30.12 "HgN/A
9:50 pm50 °FPassing clouds.9 mph88%30.12 "HgN/A
9:20 pm50 °FPassing clouds.9 mph82%30.12 "HgN/A
8:50 pm50 °FPassing clouds.10 mph82%30.12 "HgN/A
8:20 pm50 °FPassing clouds.12 mph82%30.12 "HgN/A
7:50 pm50 °FPassing clouds.9 mph82%30.12 "HgN/A
7:20 pm48 °FPassing clouds.7 mph87%30.15 "HgN/A
6:50 pm50 °FPassing clouds.6 mph82%30.12 "HgN/A
6:20 pm50 °FPassing clouds.9 mph82%30.12 "HgN/A
5:50 pm50 °FPassing clouds.10 mph76%30.12 "HgN/A
5:20 pm52 °FScattered clouds.15 mph77%30.12 "HgN/A
4:50 pm52 °FScattered clouds.14 mph77%30.12 "HgN/A
4:20 pm52 °FScattered clouds.7 mph77%30.12 "HgN/A
3:50 pm52 °FScattered clouds.5 mph88%30.12 "HgN/A
3:20 pm52 °FScattered showers. Scattered clouds.3 mph82%30.12 "HgN/A
2:50 pm54 °FPassing clouds.5 mph82%30.12 "HgN/A
2:20 pm50 °FLight rain. Passing clouds.8 mph88%30.12 "HgN/A
Weather by CustomWeather, © 2017

See weather overviewHow to use our weather pages